{"data":{"norad_id":61641,"epoch":"2026-09-21T00:47:30.257376Z","epoch_age_seconds":145943,"freshness":"FRESH","line1":"1 61641U 24191W   26264.03298909 -.00000097  00000+0  59958-5 0  9992","line2":"2 61641  43.0029 131.1316 0001230 279.2640  80.8072 15.27575073107410","mean_motion":15.27575073,"eccentricity":0.000123,"inclination_deg":43.0029,"raan_deg":131.1316,"arg_perigee_deg":279.264,"mean_anomaly_deg":80.8072,"bstar":5.9958e-6,"rev_number":10741,"period_min":94.267052759115,"perigee_km":482.21992158532,"apogee_km":483.90777699425,"semimajor_km":6861.2008492898,"source":"CELESTRAK","updated_at":"2026-09-22T09:00:49.398949Z"}}